ELEKTRO-L 2 (41105 NORAD) Tracking and Keplerian Element Data

This shows tracking and keplerian element data for the satellite.

Feedback or suggestion? Click here.




ElementValue
Catalog41105
NameELEKTRO-L 2
Epoch Orbit3110
Epoch Day160.1351947
Epoch Year2024
RAAN79.575
Inclination4.8203
Eccentricity7.89E-05
Argument of Perigee177.9405
Mean Anonmoly33.7013
Mean Motion1.0027195
Decay Rate-1.19E-06
L11 41105U 15074A 24160.13519470 -.00000119 00000+0 00000+0 0 9991
L22 41105 4.8203 79.5750 0000789 177.9405 33.7013 1.00271950 31107



Live tracking and technical data element details for ELEKTRO-L 2 (NORAD 41105). ELEKTRO-L 2 can be tracked NOW for your location showing map with azimuth and elevation plus other details from your city location.







IsCatalogInMostPopularTable: catalog: 41105, numindb: 674
Update: records affected: 1



GetName: 41105 ELEKTRO-L 2

Hit Count: updated at: Tue, 18 Jun 2024 00:22:16 GMT